Weather History for KHSE - April, 2014

Change the Weather History Date:

Wednesday, April 9, 2014

  Actual Average Record
Temperature  
Mean Temperature 52 °F 58 °F  
Max Temperature 59 °F 65 °F 77 °F (1965)
Min Temperature 45 °F 51 °F 28 °F (1972)
Degree Days  
Heating Degree Days 13 8  
Month to date heating degree days 57 78  
Since 1 July heating degree days 2393 2421  
Cooling Degree Days 0 0  
Month to date cooling degree days 0 0  
Year to date cooling degree days 0 3  
Growing Degree Days 2 (Base 50)    
Moisture  
Dew Point 44 °F    
Average Humidity 70    
Maximum Humidity 86    
Minimum Humidity 53    
Precipitation  
Precipitation 0.00 in 0.13 in 1.70 in (1918)
Month to date precipitation 1.01 1.20  
Year to date precipitation 16.58 15.23  
Snow  
Snow 0.00 in - - ()
Month to date snowfall 0.0  
Since 1 July snowfall 5.7  
Snow Depth 0.00 in    
Sea Level Pressure  
Sea Level Pressure 29.80 in    
Wind  
Wind Speed 10 mph (NE)    
Max Wind Speed 18 mph    
Max Gust Speed 31 mph    
Visibility 10 miles    
Events      
T = Trace of Precipitation, MM = Missing Value Source: NWS Daily Summary

Daily Weather History Graph

Daily Weather History Graph

Search for Another Location

Airport or City:

Trip Planner

Search our weather history database for the weather conditions in past years. The results will help you decide how hot, cold, wet, or windy it might be!

Date:

Astronomy

Apr. 09, 2014 Rise Set
Actual Time 6:38 AM EDT 7:30 PM EDT
Civil Twilight 6:12 AM EDT 7:56 PM EDT
Nautical Twilight 5:41 AM EDT 8:26 PM EDT
Astronomical Twilight 5:10 AM EDT 8:58 PM EDT
Moon 2:27 PM EDT (4/9) 3:14 AM EDT (4/9)
Length of Visible Light 13h 43m
Length of Day
12h 52m
Waxing Gibbous, 71% of the Moon is Illuminated
Apr 9
Waxing Gibbous
Apr 15
Full
Apr 22
Last Quarter
Apr 29
New
May 6
First Quarter

Hourly Weather History & Observations

Time (EDT) Temp. Windchill Dew Point Humidity Pressure Visibility Wind Dir Wind Speed Gust Speed Precip Events Conditions
12:32 AM 57.0 °F - 52.0 °F 83% 29.63 in 10.0 mi NNE 9.2 mph 20.7 mph N/A   Overcast
12:51 AM 57.0 °F - 52.0 °F 83% 29.63 in 10.0 mi NNE 6.9 mph - N/A   Scattered Clouds
1:51 AM 57.0 °F - 53.1 °F 87% 29.61 in 10.0 mi NNE 11.5 mph 18.4 mph N/A   Clear
2:51 AM 55.9 °F - 48.0 °F 75% 29.60 in 10.0 mi NNE 11.5 mph 18.4 mph N/A   Mostly Cloudy
3:51 AM 54.0 °F - 44.1 °F 69% 29.61 in 10.0 mi NE 12.7 mph 25.3 mph N/A   Partly Cloudy
4:51 AM 54.0 °F - 43.0 °F 66% 29.60 in 10.0 mi NNE 17.3 mph 27.6 mph N/A   Partly Cloudy
5:51 AM 52.0 °F - 42.1 °F 69% 29.65 in 10.0 mi NE 13.8 mph 28.8 mph N/A   Overcast
6:51 AM 51.1 °F - 39.9 °F 66% 29.65 in 10.0 mi NE 13.8 mph 23.0 mph N/A   Clear
7:51 AM 52.0 °F - 41.0 °F 66% 29.70 in 10.0 mi NE 17.3 mph 29.9 mph N/A   Clear
8:51 AM 54.0 °F - 41.0 °F 62% 29.73 in 10.0 mi NNE 11.5 mph 24.2 mph N/A   Mostly Cloudy
9:51 AM 55.0 °F - 42.1 °F 62% 29.76 in 10.0 mi NNE 16.1 mph 25.3 mph N/A   Clear
10:51 AM 55.0 °F - 42.1 °F 62% 29.78 in 10.0 mi North 11.5 mph 23.0 mph N/A   Clear
11:51 AM 55.9 °F - 42.1 °F 60% 29.80 in 10.0 mi North 12.7 mph 25.3 mph N/A   Clear
12:51 PM 55.0 °F - 41.0 °F 59% 29.82 in 10.0 mi North 12.7 mph 25.3 mph N/A   Clear
1:51 PM 55.9 °F - 43.0 °F 62% 29.84 in 10.0 mi NNE 10.4 mph 20.7 mph N/A   Clear
2:51 PM 57.0 °F - 43.0 °F 59% 29.85 in 10.0 mi NNE 11.5 mph 19.6 mph N/A   Clear
3:51 PM 57.0 °F - 42.1 °F 57% 29.86 in 10.0 mi NNE 8.1 mph 16.1 mph N/A   Clear
4:51 PM 59.0 °F - 43.0 °F 55% 29.88 in 10.0 mi Variable 6.9 mph - N/A   Clear
6:51 PM 57.0 °F - 42.1 °F 57% 29.95 in 10.0 mi Calm Calm - N/A   Clear
7:51 PM 50.0 °F - 42.1 °F 74% 29.98 in 10.0 mi Calm Calm - N/A   Clear
8:51 PM 46.9 °F - 39.9 °F 77% 30.02 in 10.0 mi ESE 3.5 mph - N/A   Clear
9:51 PM 46.0 °F 44.8 °F 39.9 °F 79% 30.06 in 10.0 mi South 3.5 mph - N/A   Clear
10:51 PM 55.0 °F - 44.1 °F 67% 30.07 in 10.0 mi South 6.9 mph - N/A   Clear
11:51 PM 57.0 °F - 46.9 °F 69% 30.08 in 10.0 mi South 5.8 mph - N/A   Clear